This is the latest recevied weather packets stored in our database for station/object OE6ATD-13. If no packets are shown the sender has not sent any weather packets the latest 10 day(s).
| Time | Temp. | Humidity | Pressure | Rain* | Wind** | Luminosity | Snow |
|---|---|---|---|---|---|---|---|
| 1777628718 | 16.67° C | 33% | 1027.4 hPa | 0 mm | - | 294 W/m² | - |
| 1777628128 | 17.22° C | 31% | 1027.6 hPa | 0 mm | - | 270 W/m² | - |
| 1777627523 | 17.22° C | 33% | 1027.8 hPa | 0 mm | - | 795 W/m² | - |
| 1777626918 | 17.22° C | 31% | 1027.7 hPa | 0 mm | - | 795 W/m² | - |
| 1777626329 | 16.67° C | 33% | 1027.8 hPa | 0 mm | - | 776 W/m² | - |
| 1777625724 | 16.67° C | 32% | 1027.8 hPa | 0 mm | - | 705 W/m² | - |
| 1777625121 | 16.11° C | 32% | 1027.8 hPa | 0 mm | - | 680 W/m² | - |
| 1777623927 | 15.56° C | 32% | 1027.9 hPa | 0 mm | - | 626 W/m² | - |
| 1777623323 | 15.56° C | 32% | 1028 hPa | 0 mm | - | 610 W/m² | - |
| 1777622718 | 15° C | 31% | 1027.9 hPa | 0 mm | - | 591 W/m² | - |
| 1777622129 | 15° C | 31% | 1028 hPa | 0 mm | - | 566 W/m² | - |
| 1777621524 | 15° C | 31% | 1027.8 hPa | 0 mm | - | 542 W/m² | - |
| 1777620920 | 15° C | 31% | 1027.9 hPa | 0 mm | - | 518 W/m² | - |
| 1777620316 | 15° C | 32% | 1028 hPa | 0 mm | - | 489 W/m² | - |
| 1777619726 | 13.89° C | 31% | 1027.9 hPa | 0 mm | - | 459 W/m² | - |
| 1777619122 | 13.33° C | 33% | 1027.9 hPa | 0 mm | - | 433 W/m² | - |
| 1777618518 | 12.78° C | 35% | 1027.9 hPa | 0 mm | - | 401 W/m² | - |
| 1777617929 | 12.22° C | 38% | 1028 hPa | 0 mm | - | 372 W/m² | - |
| 1777617325 | 11.67° C | 40% | 1027.9 hPa | 0 mm | - | 344 W/m² | - |
| 1777616721 | 11.11° C | 42% | 1027.9 hPa | 0 mm | - | 312 W/m² | - |
| 1777616117 | 10° C | 43% | 1027.8 hPa | 0 mm | - | 282 W/m² | - |
| 1777615527 | 9.44° C | 48% | 1027.8 hPa | 0 mm | - | 254 W/m² | - |
| 1777614923 | 8.89° C | 50% | 1027.6 hPa | 0 mm | - | 224 W/m² | - |
| 1777614318 | 7.78° C | 52% | 1027.7 hPa | 0 mm | - | 195 W/m² | - |
| 1777613729 | 7.22° C | 59% | 1027.7 hPa | 0 mm | - | 166 W/m² | - |
* Rain latest hour (hover to see other rain measurements)
** Current wind speed in m/s (hover to see current wind gust speed)